Regional Weather Roundup
Issued by NWS Albany, NY

Home | Current Version | Previous Version | Graphics & Text | Print | Product List | Glossary On
Versions: 1 2 3 4 5 6 7 8 9 10 11 12 13 14 15 16 17 18 19 20 21 22 23 24 25 26 27 28 29 30 31 32 33 34 35 36 37 38 39 40 41 42 43 44 45 46 47 48 49 50
857
ASUS41 KALY 051410
RWRALY

NEW YORK STATE HOURLY WEATHER ROUNDUP
NATIONAL WEATHER SERVICE ALBANY NY
900 AM EST FRI FEB 05 2016

NOTE: "FAIR" INDICATES FEW OR NO CLOUDS BELOW 12,000 FEET WITH NO
SIGNIFICANT WEATHER AND/OR NO OBSTRUCTIONS TO VISIBILITY.

NYZ032-033-038>043-046>054-057>066-NYZ062>081-051500-
EAST


CITY           SKY/WX    TMP DP  RH WIND       PRES   REMARKS
ALBANY         CLOUDY    34  21  59 N7        30.14S WCI  28
GLENS FALLS    CLOUDY    33  23  66 NE5       30.17S WCI  29
POUGHKEEPSIE   FLURRIES  33  26  75 E8        30.09F WCI  26
NEWBURGH       CLOUDY    30  28  93 E9        30.09F WCI  22
MONTGOMERY     CLOUDY    36  20  52 N14       30.06F WCI  27
WHITE PLAINS   SNOW      30  27  88 N18G25    30.07F VSB 1/2 WCI  18
ISLIP          LGT SNOW  33  31  92 N21G28    30.00F VSB 3/4 WCI  21
NEW YORK CITY  LGT SNOW  32  28  85 N22G32    30.08R VSB 1   WCI  19
CENTRAL PARK   SNOW      31  29  92 NE10G18   30.12R VSB 1/2 WCI  22
$$

NYZ005>009-017-018-044>046-055-056-051500-
CENTRAL


CITY           SKY/WX    TMP DP  RH WIND       PRES   REMARKS
FULTON         CLOUDY    31  21  66 N9        30.25S WCI  23
SYRACUSE       NOT AVBL
ROME           CLOUDY    29  24  82 W6        30.23R WCI  23
ELMIRA         PTSUNNY   31  20  63 N17       30.18F WCI  19
BINGHAMTON     CLOUDY    28  19  69 NW13      30.10F WCI  17
MONTICELLO     CLOUDY    30  14  51 N22       30.06F WCI  17
$$

NYZ026>034-041>043-051500-
NORTH


CITY           SKY/WX    TMP DP  RH WIND       PRES   REMARKS
WATERTOWN      SUNNY     27  18  69 N7        30.26F WCI  19
FORT DRUM      NOT AVBL
MASSENA        SUNNY     24  16  71 NW7       30.27R WCI  16
SARANAC LAKE   CLOUDY    24  13  62 NW8       30.10S WCI  15
PLATTSBURGH    CLOUDY    28  20  71 N12       30.19R WCI  18
$$

NYZ001>004-010>016-019>021-051500-
WEST


CITY           SKY/WX    TMP DP  RH WIND       PRES   REMARKS
NIAGARA FALLS  FLURRIES  30  25  81 CALM      30.28S
BUFFALO        FLURRIES  29  25  85 NW7       30.28S WCI  22
DUNKIRK        CLOUDY    30  23  75 NW10      30.29S WCI  21
JAMESTOWN      CLOUDY    25  19  80 W16       30.22R WCI  12
WELLSVILLE     LGT SNOW  26  22  84 N7        30.17S FOG     WCI  18
ROCHESTER      FLURRIES  30  25  81 N7        30.28R WCI  23
PENN YAN       LGT SNOW  28  23  81 N8        30.22S WCI  20
$$

             KEY
       WCI = WIND CHILL INDEX
       VSB = VISIBILITY
       HX  = HEAT INDEX
$$




USA.gov is the U.S. government's official web portal to all federal, state and local government web resources and services.